Time,TemperatureF,DewpointF,PressureIn,WindDirection,WindDirectionDegrees,WindSpeedMPH,WindSpeedGustMPH,Humidity,HourlyPrecipIn,Conditions,Clouds,dailyrainin,SoftwareType,DateUTC
2013-05-01 12:01:00,65.6,57.5,30.01,NW,308,3.0,5.0,75,0.00,NA,NA,-99.99,VWS Version 10.39,2013-05-01 19:01:00,
2013-05-01 12:06:00,65.7,57.2,30.01,NNE,17,3.0,4.0,74,0.00,NA,NA,-99.99,VWS Version 10.39,2013-05-01 19:06:00,
2013-05-01 12:11:00,65.6,57.1,30.00,SW,229,1.0,4.0,74,0.00,NA,NA,-99.99,VWS Version 10.39,2013-05-01 19:11:00,
2013-05-01 12:16:00,65.9,57.0,30.00,WNW,293,5.0,7.0,73,0.00,NA,NA,-99.99,VWS Version 10.39,2013-05-01 19:16:00,
2013-05-01 12:21:00,65.1,57.0,30.00,WNW,286,5.0,5.0,75,0.00,NA,NA,-99.99,VWS Version 10.39,2013-05-01 19:21:00,
2013-05-01 12:26:00,65.4,57.3,30.00,West,279,4.0,6.0,75,0.00,NA,NA,-99.99,VWS Version 10.39,2013-05-01 19:26:00,
2013-05-01 12:31:00,65.0,56.9,30.00,WNW,294,7.0,7.0,75,0.00,NA,NA,-99.99,VWS Version 10.39,2013-05-01 19:31:00,
2013-05-01 12:36:00,64.7,56.6,30.00,NW,317,6.0,6.0,75,0.00,NA,NA,-99.99,VWS Version 10.39,2013-05-01 19:36:00,
2013-05-01 12:41:00,64.4,56.3,30.00,WNW,299,7.0,8.0,75,0.00,NA,NA,-99.99,VWS Version 10.39,2013-05-01 19:41:00,
2013-05-01 12:46:00,64.7,57.0,30.00,WNW,293,6.0,8.0,76,0.00,NA,NA,-99.99,VWS Version 10.39,2013-05-01 19:46:00,
2013-05-01 12:51:00,65.0,56.5,30.00,North,349,3.0,5.0,74,0.00,NA,NA,-99.99,VWS Version 10.39,2013-05-01 19:51:00,
2013-05-01 12:56:00,65.7,57.6,29.99,North,360,4.0,5.0,75,0.00,NA,NA,-99.99,VWS Version 10.39,2013-05-01 19:56:00,
2013-05-01 13:01:00,65.8,56.5,30.00,NW,307,7.0,8.0,72,0.00,NA,NA,-99.99,VWS Version 10.39,2013-05-01 20:01:00,
2013-05-01 13:06:00,65.2,56.3,30.00,ESE,103,1.0,2.0,73,0.00,NA,NA,-99.99,VWS Version 10.39,2013-05-01 20:06:00,
2013-05-01 13:11:00,65.1,56.2,29.99,WNW,285,8.0,8.0,73,0.00,NA,NA,-99.99,VWS Version 10.39,2013-05-01 20:11:00,
2013-05-01 13:16:00,64.8,56.3,29.99,NNE,13,3.0,3.0,74,0.00,NA,NA,-99.99,VWS Version 10.39,2013-05-01 20:16:00,
2013-05-01 13:21:00,65.8,56.9,29.99,NW,315,5.0,7.0,73,0.00,NA,NA,-99.99,VWS Version 10.39,2013-05-01 20:21:00,
2013-05-01 13:26:00,65.1,56.2,29.99,WSW,256,7.0,8.0,73,0.00,NA,NA,-99.99,VWS Version 10.39,2013-05-01 20:26:00,
2013-05-01 13:31:00,65.2,56.7,29.99,WNW,286,4.0,6.0,74,0.00,NA,NA,-99.99,VWS Version 10.39,2013-05-01 20:31:00,
2013-05-01 13:36:00,65.6,57.1,29.99,WNW,290,5.0,9.0,74,0.00,NA,NA,-99.99,VWS Version 10.39,2013-05-01 20:36:00,
2013-05-01 13:41:00,65.6,56.3,29.99,West,280,6.0,8.0,72,0.00,NA,NA,-99.99,VWS Version 10.39,2013-05-01 20:41:00,
2013-05-01 13:46:00,65.7,56.8,29.99,WSW,250,4.0,6.0,73,0.00,NA,NA,-99.99,VWS Version 10.39,2013-05-01 20:46:00,
2013-05-01 13:51:00,65.9,57.0,29.99,West,278,7.0,8.0,73,0.00,NA,NA,-99.99,VWS Version 10.39,2013-05-01 20:51:00,
2013-05-01 13:56:00,65.2,56.3,29.99,SW,223,6.0,7.0,73,0.00,NA,NA,-99.99,VWS Version 10.39,2013-05-01 20:56:00,
2013-05-01 14:01:00,65.0,56.5,29.99,West,277,6.0,7.0,74,0.00,NA,NA,-99.99,VWS Version 10.39,2013-05-01 21:01:00,
2013-05-01 14:06:00,64.9,56.8,29.99,West,260,5.0,7.0,75,0.00,NA,NA,-99.99,VWS Version 10.39,2013-05-01 21:06:00,
2013-05-01 14:11:00,65.4,56.5,29.99,SSW,192,3.0,4.0,73,0.00,NA,NA,-99.99,VWS Version 10.39,2013-05-01 21:11:00,
2013-05-01 14:16:00,65.8,56.5,29.98,NW,313,7.0,8.0,72,0.00,NA,NA,-99.99,VWS Version 10.39,2013-05-01 21:16:00,
2013-05-01 14:21:00,64.9,56.4,29.98,West,271,7.0,9.0,74,0.00,NA,NA,-99.99,VWS Version 10.39,2013-05-01 21:21:00,
2013-05-01 14:26:00,64.8,56.3,29.99,WNW,302,4.0,7.0,74,0.00,NA,NA,-99.99,VWS Version 10.39,2013-05-01 21:26:00,
2013-05-01 14:31:00,64.9,56.4,29.98,NW,315,3.0,4.0,74,0.00,NA,NA,-99.99,VWS Version 10.39,2013-05-01 21:31:00,
2013-05-01 14:36:00,65.4,56.5,29.99,West,281,7.0,7.0,73,0.00,NA,NA,-99.99,VWS Version 10.39,2013-05-01 21:36:00,
2013-05-01 14:41:00,65.3,56.4,29.98,West,268,3.0,3.0,73,0.00,NA,NA,-99.99,VWS Version 10.39,2013-05-01 21:41:00,
2013-05-01 14:46:00,65.3,56.4,29.98,WSW,246,4.0,6.0,73,0.00,NA,NA,-99.99,VWS Version 10.39,2013-05-01 21:46:00,
2013-05-01 14:51:00,65.8,56.9,29.98,NW,323,4.0,8.0,73,0.00,NA,NA,-99.99,VWS Version 10.39,2013-05-01 21:51:00,
2013-05-01 15:01:00,65.7,56.4,29.98,West,281,9.0,9.0,72,0.00,NA,NA,-99.99,VWS Version 10.39,2013-05-01 22:01:00,
2013-05-01 15:11:00,65.9,56.2,29.98,West,273,8.0,8.0,71,0.00,NA,NA,-99.99,VWS Version 10.39,2013-05-01 22:11:00,
2013-05-01 15:16:00,65.8,56.5,29.98,WNW,288,7.0,7.0,72,0.00,NA,NA,-99.99,VWS Version 10.39,2013-05-01 22:16:00,
2013-05-01 15:21:00,65.7,56.4,29.98,North,5,3.0,7.0,72,0.00,NA,NA,-99.99,VWS Version 10.39,2013-05-01 22:21:00,
2013-05-01 15:26:00,65.7,56.0,29.98,West,268,7.0,12.0,71,0.00,NA,NA,-99.99,VWS Version 10.39,2013-05-01 22:26:00,
2013-05-01 15:31:00,64.8,56.3,29.98,NNW,336,5.0,7.0,74,0.00,NA,NA,-99.99,VWS Version 10.39,2013-05-01 22:31:00,
2013-05-01 15:36:00,64.9,56.4,29.98,NW,325,3.0,5.0,74,0.00,NA,NA,-99.99,VWS Version 10.39,2013-05-01 22:36:00,
2013-05-01 15:41:00,64.8,56.0,29.98,NW,308,4.0,5.0,73,0.00,NA,NA,-99.99,VWS Version 10.39,2013-05-01 22:41:00,
2013-05-01 15:46:00,65.0,56.5,29.98,WNW,292,8.0,10.0,74,0.00,NA,NA,-99.99,VWS Version 10.39,2013-05-01 22:46:00,
2013-05-01 15:51:00,65.0,56.9,29.98,WNW,284,7.0,8.0,75,0.00,NA,NA,-99.99,VWS Version 10.39,2013-05-01 22:51:00,
2013-05-01 15:56:00,64.7,55.9,29.98,WNW,299,8.0,9.0,73,0.00,NA,NA,-99.99,VWS Version 10.39,2013-05-01 22:56:00,
2013-05-01 16:01:00,65.0,56.5,29.98,NW,309,7.0,7.0,74,0.00,NA,NA,-99.99,VWS Version 10.39,2013-05-01 23:01:00,
2013-05-01 16:06:00,65.2,56.3,29.98,WNW,282,6.0,8.0,73,0.00,NA,NA,-99.99,VWS Version 10.39,2013-05-01 23:06:00,
2013-05-01 16:11:00,65.1,56.6,29.98,WNW,286,4.0,4.0,74,0.00,NA,NA,-99.99,VWS Version 10.39,2013-05-01 23:11:00,
2013-05-01 16:16:00,64.7,55.9,29.97,WSW,238,4.0,5.0,73,0.00,NA,NA,-99.99,VWS Version 10.39,2013-05-01 23:16:00,
2013-05-01 16:21:00,64.8,56.3,29.98,WNW,287,8.0,8.0,74,0.00,NA,NA,-99.99,VWS Version 10.39,2013-05-01 23:21:00,
2013-05-01 16:26:00,64.4,56.3,29.98,West,275,7.0,7.0,75,0.00,NA,NA,-99.99,VWS Version 10.39,2013-05-01 23:26:00,
2013-05-01 16:31:00,65.0,56.5,29.98,NNW,334,5.0,9.0,74,0.00,NA,NA,-99.99,VWS Version 10.39,2013-05-01 23:31:00,
2013-05-01 16:36:00,65.2,56.7,29.98,WNW,289,3.0,4.0,74,0.00,NA,NA,-99.99,VWS Version 10.39,2013-05-01 23:36:00,
2013-05-01 16:41:00,65.4,56.5,29.98,WNW,292,6.0,7.0,73,0.00,NA,NA,-99.99,VWS Version 10.39,2013-05-01 23:41:00,
2013-05-01 16:46:00,65.2,56.3,29.98,West,279,4.0,6.0,73,0.00,NA,NA,-99.99,VWS Version 10.39,2013-05-01 23:46:00,
2013-05-01 16:51:00,65.1,56.2,29.98,WNW,286,4.0,8.0,73,0.00,NA,NA,-99.99,VWS Version 10.39,2013-05-01 23:51:00,
2013-05-01 16:56:00,65.0,56.5,29.98,West,267,1.0,2.0,74,0.00,NA,NA,-99.99,VWS Version 10.39,2013-05-01 23:56:00,
2013-05-01 17:01:00,65.2,56.7,29.98,WSW,246,5.0,8.0,74,0.00,NA,NA,-99.99,VWS Version 10.39,2013-05-02 00:01:00,
2013-05-01 17:06:00,65.2,56.7,29.98,WSW,250,4.0,8.0,74,0.00,NA,NA,-99.99,VWS Version 10.39,2013-05-02 00:06:00,
2013-05-01 17:11:00,64.6,56.5,29.98,WNW,302,4.0,5.0,75,0.00,NA,NA,-99.99,VWS Version 10.39,2013-05-02 00:11:00,
2013-05-01 17:16:00,64.7,56.6,29.98,SW,235,4.0,8.0,75,0.00,NA,NA,-99.99,VWS Version 10.39,2013-05-02 00:16:00,
2013-05-01 17:21:00,64.5,56.8,29.98,West,261,4.0,7.0,76,0.00,NA,NA,-99.99,VWS Version 10.39,2013-05-02 00:21:00,
2013-05-01 17:26:00,64.4,56.3,29.98,WSW,253,9.0,9.0,75,0.00,NA,NA,-99.99,VWS Version 10.39,2013-05-02 00:26:00,
2013-05-01 17:31:00,64.5,56.8,29.98,South,173,3.0,3.0,76,0.00,NA,NA,-99.99,VWS Version 10.39,2013-05-02 00:31:00,
2013-05-01 17:36:00,64.7,56.2,29.98,North,5,2.0,2.0,74,0.00,NA,NA,-99.99,VWS Version 10.39,2013-05-02 00:36:00,
2013-05-01 17:41:00,64.7,56.6,29.98,NW,304,3.0,4.0,75,0.00,NA,NA,-99.99,VWS Version 10.39,2013-05-02 00:41:00,
2013-05-01 17:46:00,64.9,56.4,29.98,NNW,338,3.0,5.0,74,0.00,NA,NA,-99.99,VWS Version 10.39,2013-05-02 00:46:00,
2013-05-01 17:51:00,64.9,56.0,29.98,WSW,246,7.0,7.0,73,0.00,NA,NA,-99.99,VWS Version 10.39,2013-05-02 00:51:00,
2013-05-01 17:56:00,64.9,56.0,29.98,WNW,303,3.0,3.0,73,0.00,NA,NA,-99.99,VWS Version 10.39,2013-05-02 00:56:00,
2013-05-01 18:01:00,64.8,56.3,29.98,WNW,288,2.0,5.0,74,0.00,NA,NA,-99.99,VWS Version 10.39,2013-05-02 01:01:00,
2013-05-01 18:06:00,64.7,56.6,29.98,NW,325,2.0,6.0,75,0.00,NA,NA,-99.99,VWS Version 10.39,2013-05-02 01:06:00,
2013-05-01 18:11:00,64.6,56.1,29.98,WNW,292,2.0,3.0,74,0.00,NA,NA,-99.99,VWS Version 10.39,2013-05-02 01:11:00,
2013-05-01 18:16:00,64.7,56.2,29.98,WNW,292,4.0,7.0,74,0.00,NA,NA,-99.99,VWS Version 10.39,2013-05-02 01:16:00,
2013-05-01 18:21:00,64.8,56.3,29.99,ESE,113,1.0,2.0,74,0.00,NA,NA,-99.99,VWS Version 10.39,2013-05-02 01:21:00,
2013-05-01 18:26:00,64.5,56.0,29.99,West,275,1.0,4.0,74,0.00,NA,NA,-99.99,VWS Version 10.39,2013-05-02 01:26:00,
2013-05-01 18:31:00,64.1,56.4,29.99,NW,309,0.0,2.0,76,0.00,NA,NA,-99.99,VWS Version 10.39,2013-05-02 01:31:00,
2013-05-01 18:36:00,64.1,56.8,29.99,SW,234,6.0,6.0,77,0.00,NA,NA,-99.99,VWS Version 10.39,2013-05-02 01:36:00,
2013-05-01 18:41:00,63.9,56.6,29.99,West,271,0.0,0.0,77,0.00,NA,NA,-99.99,VWS Version 10.39,2013-05-02 01:41:00,
2013-05-01 18:46:00,63.9,56.6,29.99,South,187,1.0,1.0,77,0.00,NA,NA,-99.99,VWS Version 10.39,2013-05-02 01:46:00,
2013-05-01 18:51:00,63.7,56.7,29.99,WSW,244,1.0,3.0,78,0.00,NA,NA,-99.99,VWS Version 10.39,2013-05-02 01:51:00,
2013-05-01 18:56:00,63.5,56.9,29.99,WSW,248,1.0,4.0,79,0.00,NA,NA,-99.99,VWS Version 10.39,2013-05-02 01:56:00,
2013-05-01 19:01:00,63.3,56.3,29.99,WSW,246,2.0,3.0,78,0.00,NA,NA,-99.99,VWS Version 10.39,2013-05-02 02:01:00,
2013-05-01 19:06:00,63.0,56.4,29.99,WSW,237,1.0,3.0,79,0.00,NA,NA,-99.99,VWS Version 10.39,2013-05-02 02:06:00,
2013-05-01 19:11:00,62.8,56.5,30.00,WSW,252,0.0,1.0,80,0.00,NA,NA,-99.99,VWS Version 10.39,2013-05-02 02:11:00,
2013-05-01 19:16:00,62.7,56.5,30.00,West,268,3.0,3.0,80,0.00,NA,NA,-99.99,VWS Version 10.39,2013-05-02 02:16:00,
2013-05-01 19:21:00,62.5,56.6,30.00,West,259,3.0,3.0,81,0.00,NA,NA,-99.99,VWS Version 10.39,2013-05-02 02:21:00,
2013-05-01 19:26:00,62.3,56.4,30.00,WSW,248,3.0,3.0,81,0.00,NA,NA,-99.99,VWS Version 10.39,2013-05-02 02:26:00,
2013-05-01 19:31:00,62.1,56.5,30.01,WSW,247,0.0,1.0,82,0.00,NA,NA,-99.99,VWS Version 10.39,2013-05-02 02:31:00,
2013-05-01 19:36:00,62.0,56.5,30.01,NW,313,0.0,1.0,82,0.00,NA,NA,-99.99,VWS Version 10.39,2013-05-02 02:36:00,
2013-05-01 19:41:00,61.8,56.6,30.01,NW,308,2.0,2.0,83,0.00,NA,NA,-99.99,VWS Version 10.39,2013-05-02 02:41:00,
2013-05-01 19:46:00,61.7,56.5,30.01,WSW,248,2.0,3.0,83,0.00,NA,NA,-99.99,VWS Version 10.39,2013-05-02 02:46:00,
2013-05-01 19:51:00,61.5,56.6,30.02,West,269,0.0,1.0,84,0.00,NA,NA,-99.99,VWS Version 10.39,2013-05-02 02:51:00,
2013-05-01 19:56:00,61.3,56.4,30.02,West,263,0.0,1.0,84,0.00,NA,NA,-99.99,VWS Version 10.39,2013-05-02 02:56:00,
2013-05-01 20:01:00,61.1,56.2,30.02,WSW,246,0.0,1.0,84,0.00,NA,NA,-99.99,VWS Version 10.39,2013-05-02 03:01:00,
2013-05-01 20:11:00,60.9,56.4,30.03,WSW,242,0.0,0.0,85,0.00,NA,NA,-99.99,VWS Version 10.39,2013-05-02 03:11:00,
2013-05-01 20:16:00,60.8,56.3,30.03,WSW,238,1.0,1.0,85,0.00,NA,NA,-99.99,VWS Version 10.39,2013-05-02 03:16:00,
2013-05-01 20:21:00,60.6,56.1,30.03,West,267,0.0,0.0,85,0.00,NA,NA,-99.99,VWS Version 10.39,2013-05-02 03:21:00,
2013-05-01 20:26:00,60.5,56.3,30.03,SW,221,1.0,2.0,86,0.00,NA,NA,-99.99,VWS Version 10.39,2013-05-02 03:26:00,
2013-05-01 20:31:00,60.4,56.2,30.04,SW,221,0.0,1.0,86,0.00,NA,NA,-99.99,VWS Version 10.39,2013-05-02 03:31:00,
2013-05-01 20:36:00,60.4,56.2,30.04,SW,223,0.0,0.0,86,0.00,NA,NA,-99.99,VWS Version 10.39,2013-05-02 03:36:00,
2013-05-01 20:41:00,60.4,56.2,30.04,SW,223,0.0,0.0,86,0.00,NA,NA,-99.99,VWS Version 10.39,2013-05-02 03:41:00,
2013-05-01 20:46:00,60.3,56.1,30.04,SW,223,0.0,1.0,86,0.00,NA,NA,-99.99,VWS Version 10.39,2013-05-02 03:46:00,
2013-05-01 20:51:00,60.3,56.1,30.05,SW,223,0.0,0.0,86,0.00,NA,NA,-99.99,VWS Version 10.39,2013-05-02 03:51:00,
2013-05-01 20:56:00,60.3,56.1,30.05,SW,223,0.0,0.0,86,0.00,NA,NA,-99.99,VWS Version 10.39,2013-05-02 03:56:00,
2013-05-01 21:01:00,60.2,56.0,30.05,SW,223,0.0,0.0,86,0.00,NA,NA,-99.99,VWS Version 10.39,2013-05-02 04:01:00,
2013-05-01 21:06:00,60.0,55.8,30.06,SW,223,0.0,0.0,86,0.00,NA,NA,-99.99,VWS Version 10.39,2013-05-02 04:06:00,
2013-05-01 21:11:00,60.0,56.1,30.06,SW,223,0.0,0.0,87,0.00,NA,NA,-99.99,VWS Version 10.39,2013-05-02 04:11:00,
2013-05-01 21:16:00,59.9,56.0,30.06,SW,223,0.0,0.0,87,0.00,NA,NA,-99.99,VWS Version 10.39,2013-05-02 04:16:00,
2013-05-01 21:21:00,59.8,55.9,30.06,SW,223,0.0,0.0,87,0.00,NA,NA,-99.99,VWS Version 10.39,2013-05-02 04:21:00,
2013-05-01 21:26:00,59.7,55.8,30.07,SW,223,0.0,0.0,87,0.00,NA,NA,-99.99,VWS Version 10.39,2013-05-02 04:26:00,
2013-05-01 21:31:00,59.7,55.8,30.07,SW,223,0.0,0.0,87,0.00,NA,NA,-99.99,VWS Version 10.39,2013-05-02 04:31:00,
2013-05-01 21:36:00,59.7,55.8,30.07,SW,223,0.0,0.0,87,0.00,NA,NA,-99.99,VWS Version 10.39,2013-05-02 04:36:00,
2013-05-01 21:41:00,59.7,56.2,30.07,SW,223,0.0,0.0,88,0.00,NA,NA,-99.99,VWS Version 10.39,2013-05-02 04:41:00,
2013-05-01 21:46:00,59.7,56.2,30.08,SW,223,0.0,1.0,88,0.00,NA,NA,-99.99,VWS Version 10.39,2013-05-02 04:46:00,
2013-05-01 21:51:00,59.7,56.2,30.08,SW,223,1.0,1.0,88,0.00,NA,NA,-99.99,VWS Version 10.39,2013-05-02 04:51:00,
2013-05-01 21:56:00,59.8,56.2,30.08,SW,223,0.0,0.0,88,0.00,NA,NA,-99.99,VWS Version 10.39,2013-05-02 04:56:00,
2013-05-01 22:01:00,59.8,56.2,30.08,SW,223,0.0,0.0,88,0.00,NA,NA,-99.99,VWS Version 10.39,2013-05-02 05:01:00,
2013-05-01 22:11:00,59.9,56.3,30.09,SW,223,1.0,1.0,88,0.00,NA,NA,-99.99,VWS Version 10.39,2013-05-02 05:11:00,
2013-05-01 22:16:00,59.9,56.3,30.09,SW,223,0.0,1.0,88,0.00,NA,NA,-99.99,VWS Version 10.39,2013-05-02 05:16:00,
2013-05-01 22:21:00,59.9,56.0,30.09,SW,223,1.0,1.0,87,0.00,NA,NA,-99.99,VWS Version 10.39,2013-05-02 05:21:00,
2013-05-01 22:26:00,59.9,56.0,30.09,SW,223,0.0,0.0,87,0.00,NA,NA,-99.99,VWS Version 10.39,2013-05-02 05:26:00,
2013-05-01 22:31:00,59.9,56.0,30.10,SW,223,0.0,0.0,87,0.00,NA,NA,-99.99,VWS Version 10.39,2013-05-02 05:31:00,
2013-05-01 22:36:00,59.9,56.0,30.09,SW,223,0.0,1.0,87,0.00,NA,NA,-99.99,VWS Version 10.39,2013-05-02 05:36:00,
2013-05-01 22:41:00,60.0,56.1,30.09,SW,223,0.0,0.0,87,0.00,NA,NA,-99.99,VWS Version 10.39,2013-05-02 05:41:00,
2013-05-01 22:46:00,60.0,56.1,30.10,SW,230,2.0,2.0,87,0.00,NA,NA,-99.99,VWS Version 10.39,2013-05-02 05:46:00,
2013-05-01 22:51:00,60.0,56.1,30.10,WSW,243,0.0,0.0,87,0.00,NA,NA,-99.99,VWS Version 10.39,2013-05-02 05:51:00,
2013-05-01 22:56:00,60.1,56.2,30.10,West,267,1.0,1.0,87,0.00,NA,NA,-99.99,VWS Version 10.39,2013-05-02 05:56:00,
2013-05-01 23:01:00,60.0,56.1,30.10,West,276,0.0,0.0,87,0.00,NA,NA,-99.99,VWS Version 10.39,2013-05-02 06:01:00,
2013-05-01 23:06:00,60.1,56.2,30.09,West,276,0.0,0.0,87,0.00,NA,NA,-99.99,VWS Version 10.39,2013-05-02 06:06:00,
2013-05-01 23:11:00,60.0,56.1,30.10,West,276,1.0,2.0,87,0.00,NA,NA,-99.99,VWS Version 10.39,2013-05-02 06:11:00,
2013-05-01 23:16:00,60.1,56.2,30.10,West,276,1.0,1.0,87,0.00,NA,NA,-99.99,VWS Version 10.39,2013-05-02 06:16:00,
2013-05-01 23:21:00,60.1,56.2,30.10,West,276,0.0,1.0,87,0.00,NA,NA,-99.99,VWS Version 10.39,2013-05-02 06:21:00,
2013-05-01 23:26:00,60.1,55.9,30.10,West,276,0.0,0.0,86,0.00,NA,NA,-99.99,VWS Version 10.39,2013-05-02 06:26:00,
2013-05-01 23:31:00,60.2,56.0,30.10,NNW,345,0.0,0.0,86,0.00,NA,NA,-99.99,VWS Version 10.39,2013-05-02 06:31:00,
2013-05-01 23:36:00,60.2,56.0,30.10,NNW,345,0.0,0.0,86,0.00,NA,NA,-99.99,VWS Version 10.39,2013-05-02 06:36:00,
2013-05-01 23:41:00,60.3,56.1,30.10,NE,38,2.0,2.0,86,0.00,NA,NA,-99.99,VWS Version 10.39,2013-05-02 06:41:00,
2013-05-01 23:46:00,60.4,56.2,30.10,NE,41,0.0,1.0,86,0.00,NA,NA,-99.99,VWS Version 10.39,2013-05-02 06:46:00,
2013-05-01 23:51:00,60.4,55.9,30.10,NE,41,3.0,3.0,85,0.00,NA,NA,-99.99,VWS Version 10.39,2013-05-02 06:51:00,
2013-05-01 23:56:00,60.5,56.0,30.10,NE,46,0.0,0.0,85,0.00,NA,NA,-99.99,VWS Version 10.39,2013-05-02 06:56:00,